| time (UTC) | temp F | wind direction | speed MPH | gust MPH | rain 1hr in | rain 24hr in | rain mn in | humidity % | barometer mb |
| 20260508013004 | 80 | 261 | 3.0 | 7.0 | 0.00 | 0.00 | 0.00 | 49 | 1014.2 |
| 20260508012005 | 80 | 256 | 3.0 | 11.0 | 0.00 | 0.00 | 0.00 | 48 | 1014.1 |
| 20260508011004 | 80 | 251 | 3.0 | 6.0 | 0.00 | 0.00 | 0.00 | 46 | 1014.1 |
| 20260508010004 | 81 | 254 | 3.0 | 7.0 | 0.00 | 0.00 | 0.00 | 45 | 1014.1 |
| 20260508005004 | 82 | 257 | 3.0 | 7.0 | 0.00 | 0.00 | 0.00 | 43 | 1014.0 |
| 20260508004004 | 82 | 258 | 3.0 | 8.0 | 0.00 | 0.00 | 0.00 | 40 | 1014.0 |
| 20260508003005 | 83 | 254 | 3.0 | 8.0 | 0.00 | 0.00 | 0.00 | 39 | 1014.0 |
| 20260508002004 | 84 | 252 | 3.0 | 6.0 | 0.00 | 0.00 | 0.00 | 38 | 1013.9 |
| 20260508001004 | 84 | 261 | 2.0 | 7.0 | 0.00 | 0.00 | 0.00 | 37 | 1013.8 |
| 20260508000004 | 85 | 260 | 3.0 | 7.0 | 0.00 | 0.00 | 0.00 | 36 | 1013.8 |
| 20260507235004 | 86 | 254 | 3.0 | 6.0 | 0.00 | 0.00 | 0.00 | 35 | 1013.8 |
| 20260507234004 | 87 | 254 | 4.0 | 9.0 | 0.00 | 0.00 | 0.00 | 36 | 1013.8 |
| 20260507233004 | 88 | 255 | 4.0 | 11.0 | 0.00 | 0.00 | 0.00 | 37 | 1013.8 |
| 20260507232004 | 89 | 258 | 4.0 | 9.0 | 0.00 | 0.00 | 0.00 | 37 | 1013.7 |
| 20260507231004 | 90 | 261 | 5.0 | 10.0 | 0.00 | 0.00 | 0.00 | 37 | 1013.6 |
| 20260507230004 | 91 | 258 | 5.0 | 11.0 | 0.00 | 0.00 | 0.00 | 39 | 1013.5 |
| 20260507225004 | 91 | 264 | 5.0 | 11.0 | 0.00 | 0.00 | 0.00 | 37 | 1013.4 |
| 20260507224004 | 91 | 243 | 4.0 | 10.0 | 0.00 | 0.00 | 0.00 | 38 | 1013.3 |
| 20260507223025 | 92 | 238 | 4.0 | 10.0 | 0.00 | 0.00 | 0.00 | 38 | 1013.2 |
| 20260507222005 | 92 | 231 | 4.0 | 11.0 | 0.00 | 0.00 | 0.00 | 39 | 1013.1 |
| 20260507221003 | 93 | 259 | 4.0 | 11.0 | 0.00 | 0.00 | 0.00 | 38 | 1013.0 |
| 20260507220025 | 93 | 252 | 4.0 | 8.0 | 0.00 | 0.00 | 0.00 | 38 | 1013.0 |
| 20260507215004 | 93 | 250 | 4.0 | 11.0 | 0.00 | 0.00 | 0.00 | 38 | 1013.2 |
| 20260507214004 | 93 | 243 | 5.0 | 11.0 | 0.00 | 0.00 | 0.00 | 37 | 1013.1 |
| 20260507213004 | 93 | 248 | 3.0 | 9.0 | 0.00 | 0.00 | 0.00 | 38 | 1013.2 |
| 20260507212004 | 93 | 251 | 4.0 | 10.0 | 0.00 | 0.00 | 0.00 | 40 | 1013.2 |
| 20260507211004 | 93 | 252 | 5.0 | 14.0 | 0.00 | 0.00 | 0.00 | 40 | 1013.2 |
| 20260507210025 | 93 | 253 | 4.0 | 13.0 | 0.00 | 0.00 | 0.00 | 40 | 1013.4 |
| 20260507205024 | 93 | 243 | 4.0 | 11.0 | 0.00 | 0.00 | 0.00 | 41 | 1013.6 |
| 20260507204003 | 92 | 255 | 4.0 | 12.0 | 0.00 | 0.00 | 0.00 | 42 | 1013.5 |
| 20260507203004 | 92 | 245 | 5.0 | 14.0 | 0.00 | 0.00 | 0.00 | 44 | 1013.5 |
| 20260507202004 | 92 | 245 | 4.0 | 14.0 | 0.00 | 0.00 | 0.00 | 43 | 1013.5 |
| 20260507201003 | 93 | 248 | 5.0 | 13.0 | 0.00 | 0.00 | 0.00 | 44 | 1013.6 |
| 20260507200004 | 93 | 256 | 4.0 | 10.0 | 0.00 | 0.00 | 0.00 | 43 | 1013.6 |
| 20260507195004 | 92 | 242 | 5.0 | 10.0 | 0.00 | 0.00 | 0.00 | 46 | 1013.8 |
| 20260507194004 | 92 | 269 | 5.0 | 13.0 | 0.00 | 0.00 | 0.00 | 47 | 1014.0 |
| 20260507193004 | 92 | 287 | 3.0 | 12.0 | 0.00 | 0.00 | 0.00 | 49 | 1014.1 |
| 20260507192004 | 91 | 250 | 4.0 | 11.0 | 0.00 | 0.00 | 0.00 | 51 | 1014.2 |
| 20260507191004 | 91 | 233 | 3.0 | 9.0 | 0.00 | 0.00 | 0.00 | 53 | 1014.5 |
| 20260507190005 | 91 | 253 | 6.0 | 16.0 | 0.00 | 0.00 | 0.00 | 53 | 1014.8 |
| 20260507185003 | 91 | 234 | 4.0 | 10.0 | 0.00 | 0.00 | 0.00 | 51 | 1014.9 |
| 20260507184003 | 91 | 255 | 5.0 | 12.0 | 0.00 | 0.00 | 0.00 | 52 | 1015.2 |
| 20260507183003 | 90 | 240 | 5.0 | 11.0 | 0.00 | 0.00 | 0.00 | 53 | 1015.3 |
| 20260507182004 | 90 | 228 | 5.0 | 12.0 | 0.00 | 0.00 | 0.00 | 55 | 1015.4 |
| 20260507181004 | 90 | 223 | 5.0 | 14.0 | 0.00 | 0.00 | 0.00 | 56 | 1015.5 |
| 20260507180004 | 90 | 244 | 4.0 | 10.0 | 0.00 | 0.00 | 0.00 | 57 | 1015.5 |
| 20260507175003 | 89 | 252 | 6.0 | 14.0 | 0.00 | 0.00 | 0.00 | 57 | 1015.6 |
| 20260507174003 | 89 | 234 | 6.0 | 16.0 | 0.00 | 0.00 | 0.00 | 58 | 1015.6 |
| 20260507173004 | 90 | 240 | 5.0 | 12.0 | 0.00 | 0.00 | 0.00 | 58 | 1015.8 |
| 20260507172004 | 90 | 239 | 5.0 | 11.0 | 0.00 | 0.00 | 0.00 | 59 | 1015.7 |
| 20260507171004 | 89 | 225 | 6.0 | 15.0 | 0.00 | 0.00 | 0.00 | 57 | 1015.7 |
| 20260507170003 | 89 | 244 | 5.0 | 12.0 | 0.00 | 0.00 | 0.00 | 59 | 1015.9 |
| 20260507165004 | 88 | 253 | 5.0 | 10.0 | 0.00 | 0.00 | 0.00 | 62 | 1016.0 |
| 20260507164004 | 88 | 227 | 5.0 | 10.0 | 0.00 | 0.00 | 0.00 | 61 | 1016.2 |
| 20260507163004 | 88 | 242 | 5.0 | 11.0 | 0.00 | 0.00 | 0.00 | 62 | 1016.1 |
| 20260507162003 | 87 | 234 | 4.0 | 11.0 | 0.00 | 0.00 | 0.00 | 64 | 1016.2 |
| 20260507161004 | 86 | 240 | 5.0 | 10.0 | 0.00 | 0.00 | 0.00 | 64 | 1016.4 |
| 20260507160003 | 87 | 229 | 3.0 | 8.0 | 0.00 | 0.00 | 0.00 | 64 | 1016.5 |
| 20260507155004 | 86 | 234 | 4.0 | 9.0 | 0.00 | 0.00 | 0.00 | 64 | 1016.4 |
| 20260507154005 | 86 | 235 | 5.0 | 13.0 | 0.00 | 0.00 | 0.00 | 64 | 1016.5 |
| 20260507151003 | 85 | 238 | 5.0 | 12.0 | 0.00 | 0.00 | 0.00 | 67 | 1016.6 |
| 20260507150004 | 85 | 230 | 4.0 | 10.0 | 0.00 | 0.00 | 0.00 | 66 | 1016.5 |
| 20260507145003 | 84 | 205 | 3.0 | 9.0 | 0.00 | 0.00 | 0.00 | 67 | 1016.7 |
| 20260507144025 | 84 | 216 | 4.0 | 14.0 | 0.00 | 0.00 | 0.00 | 68 | 1016.8 |
| 20260507143004 | 83 | 231 | 4.0 | 11.0 | 0.00 | 0.00 | 0.00 | 69 | 1016.7 |
| 20260507142004 | 83 | 216 | 4.0 | 10.0 | 0.00 | 0.00 | 0.00 | 71 | 1016.8 |
| 20260507141004 | 83 | 207 | 2.0 | 7.0 | 0.00 | 0.00 | 0.00 | 72 | 1016.9 |
| 20260507140003 | 82 | 218 | 3.0 | 8.0 | 0.00 | 0.00 | 0.00 | 73 | 1016.8 |
| 20260507135004 | 82 | 219 | 4.0 | 11.0 | 0.00 | 0.00 | 0.00 | 75 | 1016.8 |
| 20260507134004 | 81 | 218 | 2.0 | 12.0 | 0.00 | 0.00 | 0.00 | 74 | 1016.7 |
| 20260507133003 | 80 | 221 | 2.0 | 9.0 | 0.00 | 0.00 | 0.00 | 77 | 1016.6 |
| 20260507132003 | 80 | 205 | 3.0 | 8.0 | 0.00 | 0.00 | 0.00 | 77 | 1016.7 |
| 20260507131003 | 79 | 207 | 2.0 | 8.0 | 0.00 | 0.00 | 0.00 | 78 | 1016.4 |
| 20260507130004 | 78 | 205 | 1.0 | 10.0 | 0.00 | 0.00 | 0.00 | 80 | 1016.5 |
| 20260507125004 | 78 | 212 | 3.0 | 10.0 | 0.00 | 0.00 | 0.00 | 81 | 1016.5 |
| 20260507124004 | 77 | 209 | 3.0 | 9.0 | 0.00 | 0.00 | 0.00 | 82 | 1016.4 |
| 20260507123004 | 76 | 203 | 2.0 | 8.0 | 0.00 | 0.00 | 0.00 | 83 | 1016.3 |
| 20260507122004 | 76 | 193 | 1.0 | 5.0 | 0.00 | 0.00 | 0.00 | 84 | 1016.4 |
| 20260507121003 | 75 | 0 | 0.0 | 0.0 | 0.00 | 0.00 | 0.00 | 85 | 1016.3 |
| 20260507120004 | 73 | 194 | 0.0 | 2.0 | 0.00 | 0.00 | 0.00 | 86 | 1016.5 |
| 20260507115004 | 72 | 199 | 0.0 | 2.0 | 0.00 | 0.00 | 0.00 | 86 | 1016.4 |
| 20260507114003 | 72 | 0 | 0.0 | 0.0 | 0.00 | 0.00 | 0.00 | 86 | 1016.3 |
| 20260507113004 | 71 | 0 | 0.0 | 0.0 | 0.00 | 0.00 | 0.00 | 86 | 1016.4 |
| 20260507112003 | 70 | 0 | 0.0 | 0.0 | 0.00 | 0.00 | 0.00 | 87 | 1016.4 |
| 20260507111025 | 70 | 0 | 0.0 | 0.0 | 0.00 | 0.00 | 0.00 | 87 | 1016.3 |
| 20260507110005 | 70 | 0 | 0.0 | 0.0 | 0.00 | 0.00 | 0.00 | 87 | 1016.1 |
| 20260507105004 | 69 | 0 | 0.0 | 0.0 | 0.00 | 0.00 | 0.00 | 87 | 1016.2 |
| 20260507104004 | 69 | 0 | 0.0 | 0.0 | 0.00 | 0.00 | 0.00 | 86 | 1016.1 |
| 20260507103003 | 69 | 0 | 0.0 | 0.0 | 0.00 | 0.00 | 0.00 | 85 | 1016.0 |
| 20260507102006 | 69 | 0 | 0.0 | 0.0 | 0.00 | 0.00 | 0.00 | 85 | 1015.8 |
| 20260507101025 | 69 | 0 | 0.0 | 0.0 | 0.00 | 0.00 | 0.00 | 85 | 1015.7 |
| 20260507100004 | 69 | 0 | 0.0 | 0.0 | 0.00 | 0.00 | 0.00 | 85 | 1015.7 |
| 20260507095004 | 70 | 0 | 0.0 | 0.0 | 0.00 | 0.00 | 0.00 | 84 | 1015.4 |
| 20260507094025 | 70 | 0 | 0.0 | 0.0 | 0.00 | 0.00 | 0.00 | 84 | 1015.4 |
| 20260507093003 | 70 | 0 | 0.0 | 0.0 | 0.00 | 0.00 | 0.00 | 84 | 1015.5 |
| 20260507092005 | 70 | 0 | 0.0 | 0.0 | 0.00 | 0.00 | 0.00 | 84 | 1015.4 |
| 20260507091005 | 71 | 0 | 0.0 | 0.0 | 0.00 | 0.00 | 0.00 | 84 | 1015.3 |
| 20260507090006 | 71 | 0 | 0.0 | 0.0 | 0.00 | 0.00 | 0.00 | 83 | 1015.1 |
| 20260507085005 | 72 | 0 | 0.0 | 0.0 | 0.00 | 0.00 | 0.00 | 83 | 1015.2 |
| 20260507084005 | 72 | 0 | 0.0 | 0.0 | 0.00 | 0.00 | 0.00 | 83 | 1015.0 |
| 20260507083005 | 72 | 0 | 0.0 | 0.0 | 0.00 | 0.00 | 0.00 | 82 | 1015.0 |
| 20260507082005 | 72 | 0 | 0.0 | 0.0 | 0.00 | 0.00 | 0.00 | 82 | 1015.1 |
| 20260507081005 | 72 | 0 | 0.0 | 0.0 | 0.00 | 0.00 | 0.00 | 82 | 1015.2 |
| 20260507080005 | 73 | 0 | 0.0 | 0.0 | 0.00 | 0.00 | 0.00 | 81 | 1015.1 |
| 20260507075005 | 73 | 0 | 0.0 | 0.0 | 0.00 | 0.00 | 0.00 | 81 | 1014.9 |
| 20260507074026 | 73 | 188 | 0.0 | 2.0 | 0.00 | 0.00 | 0.00 | 81 | 1014.8 |
| 20260507073005 | 73 | 159 | 0.0 | 2.0 | 0.00 | 0.00 | 0.00 | 82 | 1014.8 |
| 20260507072005 | 73 | 0 | 0.0 | 0.0 | 0.00 | 0.00 | 0.00 | 81 | 1014.9 |
| 20260507071005 | 73 | 0 | 0.0 | 0.0 | 0.00 | 0.00 | 0.00 | 80 | 1014.9 |
| 20260507070009 | 73 | 0 | 0.0 | 0.0 | 0.00 | 0.00 | 0.00 | 80 | 1015.0 |
| 20260507065005 | 73 | 0 | 0.0 | 0.0 | 0.00 | 0.00 | 0.00 | 80 | 1015.2 |
| 20260507064005 | 72 | 0 | 0.0 | 0.0 | 0.00 | 0.00 | 0.00 | 80 | 1015.5 |
| 20260507063026 | 72 | 0 | 0.0 | 0.0 | 0.00 | 0.00 | 0.00 | 80 | 1015.7 |
| 20260507062005 | 73 | 0 | 0.0 | 0.0 | 0.00 | 0.00 | 0.00 | 79 | 1015.7 |
| 20260507061026 | 73 | 0 | 0.0 | 0.0 | 0.00 | 0.00 | 0.00 | 79 | 1015.9 |
| 20260507060005 | 73 | 0 | 0.0 | 0.0 | 0.00 | 0.00 | 0.00 | 78 | 1016.0 |
| 20260507055005 | 73 | 0 | 0.0 | 0.0 | 0.00 | 0.00 | 0.00 | 78 | 1016.0 |
| 20260507054004 | 74 | 0 | 0.0 | 0.0 | 0.00 | 0.00 | 0.00 | 77 | 1016.2 |
| 20260507053005 | 74 | 0 | 0.0 | 0.0 | 0.00 | 0.00 | 0.00 | 76 | 1016.3 |
| 20260507052004 | 74 | 0 | 0.0 | 0.0 | 0.00 | 0.00 | 0.00 | 75 | 1016.4 |
| 20260507051005 | 74 | 0 | 0.0 | 0.0 | 0.00 | 0.00 | 0.00 | 75 | 1016.6 |
| 20260507050005 | 75 | 0 | 0.0 | 0.0 | 0.00 | 0.00 | 0.00 | 74 | 1016.7 |
| 20260507045005 | 75 | 0 | 0.0 | 0.0 | 0.00 | 0.00 | 0.00 | 73 | 1016.7 |
| 20260507044005 | 76 | 0 | 0.0 | 0.0 | 0.00 | 0.00 | 0.00 | 72 | 1016.6 |
| 20260507043005 | 76 | 0 | 0.0 | 0.0 | 0.00 | 0.00 | 0.00 | 71 | 1016.7 |
| 20260507042004 | 76 | 0 | 0.0 | 0.0 | 0.00 | 0.00 | 0.00 | 71 | 1016.9 |
| 20260507041026 | 77 | 172 | 0.0 | 2.0 | 0.00 | 0.00 | 0.00 | 70 | 1016.8 |
| 20260507040026 | 77 | 172 | 0.0 | 3.0 | 0.00 | 0.00 | 0.00 | 69 | 1016.8 |
| 20260507035026 | 77 | 0 | 0.0 | 0.0 | 0.00 | 0.00 | 0.00 | 68 | 1016.8 |
| 20260507034005 | 78 | 173 | 1.0 | 2.0 | 0.00 | 0.00 | 0.00 | 68 | 1016.7 |
| 20260507033005 | 78 | 173 | 1.0 | 3.0 | 0.00 | 0.00 | 0.00 | 68 | 1016.5 |
| 20260507032026 | 78 | 173 | 0.0 | 2.0 | 0.00 | 0.00 | 0.00 | 69 | 1016.5 |
| 20260507031026 | 78 | 0 | 0.0 | 0.0 | 0.00 | 0.00 | 0.00 | 68 | 1016.5 |
| 20260507030026 | 78 | 0 | 0.0 | 0.0 | 0.00 | 0.00 | 0.00 | 68 | 1016.6 |
| 20260507025005 | 78 | 171 | 0.0 | 3.0 | 0.00 | 0.00 | 0.00 | 66 | 1016.4 |
| 20260507024004 | 79 | 0 | 0.0 | 0.0 | 0.00 | 0.00 | 0.00 | 65 | 1016.4 |
| 20260507023005 | 79 | 0 | 0.0 | 0.0 | 0.00 | 0.00 | 0.00 | 65 | 1016.5 |
| 20260507022005 | 80 | 170 | 1.0 | 2.0 | 0.00 | 0.00 | 0.00 | 64 | 1016.4 |
| 20260507021005 | 80 | 170 | 0.0 | 2.0 | 0.00 | 0.00 | 0.00 | 63 | 1016.6 |
| 20260507020004 | 81 | 169 | 0.0 | 2.0 | 0.00 | 0.00 | 0.00 | 62 | 1016.4 |
| 20260507015005 | 81 | 0 | 0.0 | 0.0 | 0.00 | 0.00 | 0.00 | 62 | 1016.4 |
| 20260507014004 | 82 | 118 | 1.0 | 5.0 | 0.00 | 0.00 | 0.00 | 62 | 1016.2 |